Regional Weather Roundup
Issued by NWS Jackson, KY

Home | Current Version | Previous Version | Text Only | Print | Product List | Glossary Off
Versions: 1 2 3 4 5 6 7 8 9 10 11 12 13 14 15 16 17 18 19 20 21 22 23 24 25 26 27 28 29 30 31 32 33 34 35 36 37 38 39 40 41 42 43 44 45 46 47 48 49 50

000
ASUS43 KJKL 301105
RWRJKL

EAST KENTUCKY HOURLY WEATHER ROUNDUP
NATIONAL WEATHER SERVICE JACKSON KY
700 AM EDT TUE SEP 30 2014

NOTE: "FAIR" INDICATES FEW OR NO CLOUDS BELOW 12,000 FEET WITH
NO SIGNIFICANT WEATHER AND/OR OBSTRUCTIONS TO VISIBILITY.

* THESE REPORTS ARE NOT UNDER NWS QUALITY CONTROL AND MAY NOT
  REPORT WEATHER SUCH AS PRECIPITATION AND FOG.

KYZ079-080-083-085-087-088-110-112-115-119-120-301200
...EASTERN KENTUCKY...

CITY           SKY/WX    TMP DP  RH WIND       PRES   REMARKS
JACKSON        PTCLDY    58  56  93 CALM      29.96S FOG
LONDON         FOG       57  55  93 CALM      29.97S VSB 1/4
SOMERSET*      FOG       57  57 100 CALM      29.98R VSB 1/4
MONTICELLO*    FOG       52  52 100 CALM      29.98S VSB 1/4
WILLIAMSBURG*  CLOUDY    55  55 100 CALM      29.97S
MIDDLESBORO*   FOG       59  59 100 CALM      29.99S VSB 1/2
HARLAN APT*    CLOUDY    57  57 100 CALM      30.00R VSB 1/4
BLACK MTN*       N/A     57  55  94 SE1         N/A
PIKEVILLE APT* FOG       57  57 100 CALM      29.96S VSB 0
BIG SANDY*     SUNNY     58  58 100 S3        29.95S
MOREHEAD APT*  MOSUNNY   54  52  94 CALM      29.96S FOG
$$

KYZ035-036-041-042-044-050-067-078-099-301200
...CENTRAL KENTUCKY...

CITY           SKY/WX    TMP DP  RH WIND       PRES   REMARKS
MT STERLING*     N/A     50  50 100 SW5       29.97R FOG
FLEMING/MASON* CLEAR     54  53  97 S5        29.95S FOG
DANVILLE*      CLEAR     50  50 100 CALM      29.98R
RICHMOND*      CLEAR     54  50  87 S5        29.96R
LEXINGTON      CLEAR     54  49  83 CALM      29.95S
FRANKFORT      CLEAR     51  49  92 CALM      29.94R
$$

KYZ091>093-OHZ055-061-077-WVZ005-015-034-035-042-301200
...SOUTHERN OHIO/WEST VIRGINIA...

CITY           SKY/WX    TMP DP  RH WIND       PRES   REMARKS
COVINGTON      CLEAR     54  51  90 W3        29.93R
COLUMBUS       PTCLDY    54  49  83 CALM      29.90S
DAYTON         PTCLDY    57  50  77 W3        29.94R
WILMINGTON     PTCLDY    53  48  83 SW3       29.92S
HUNTINGTON     FOG       54  54 100 CALM      29.92S VSB 1/2
CHARLESTON     FOG       58  58 100 CALM      29.93R VSB 1/2
PINEVILLE*     FOG       59  59 100 MISG      30.03R VSB 1/4
BECKLEY        CLEAR     55  53  93 S3        29.99S FOG
BLUEFIELD      CLEAR     58  54  86 W7        30.01S
$$

VAZ002-007-008-TNZ017-027-036-066-071-301200
...SOUTHWEST VIRGINIA/EAST TENNESSEE...

CITY           SKY/WX    TMP DP  RH WIND       PRES   REMARKS
WISE*          FOG       55  55 100 SW3       30.02S VSB 1/2
JONESVILLE*    FOG       55  55 100 CALM      30.01R VSB 1/4
ABINGDON*      FOG       55  55 100 CALM      30.00S VSB 3/4
BRISTOL        FOG       54  52  93 CALM      29.99S VSB 1/16
KNOXVILLE      PTCLDY    60  58  92 CALM      29.96S
OAK RIDGE      CLOUDY    62  61  96 CALM      29.98S FOG
CROSSVILLE     CLEAR     57  53  86 CALM      30.00R
NASHVILLE      CLEAR     60  58  92 CALM      29.96R
$$

...KEY TO REMARKS...
VSB - VISIBILITY IN MILES
WCI - WIND CHILL INDEX
HX  - HEAT INDEX

$$



USA.gov is the U.S. government's official web portal to all federal, state and local government web resources and services.